Location: Bednik
(45.3500°N, 16.3833°E)
Time: 17:25:22
(UTC+00:00)

Meteor 2-20 Rocket - Pass Details

Date: 08 August 2020
Orbit: 940 x 960 km, 82.5° (Epoch: 25 September)

Event Time Altitude Azimuth Distance (km) Brightness Sun altitude
Rises 19:47:47 0° 353° (N) 3,654 8.3 -14.9°
Reaches altitude 10° 19:50:20 10° 356° (N) 2,703 7.5 -15.3°
Maximum altitude 19:56:29 66° 78° (ENE) 1,045 4.5 -16.1°
Enters shadow 20:00:26 23° 156° (SSE) 1,910 5.5 -16.6°
